EW1047 Weather Reports


time (UTC)temp
C
wind
direction
speed
KPH
gust
KPH
rain 1hr
cm
rain 24hr
cm
rain mn
cm
humidity
%
barometer
mb
20260508014704 18 185 6.4 14.5 0.00 0.00 0.00 13 1018.7
20260508014203 18 198 4.8 12.9 0.00 0.00 0.00 13 1018.7
20260508013703 18 219 4.8 11.3 0.00 0.00 0.00 13 1018.7
20260508013203 19 200 6.4 16.1 0.00 0.00 0.00 13 1018.7
20260508011703 19 196 8.0 16.1 0.00 0.00 0.00 13 1018.7
20260508010703 20 229 9.7 19.3 0.00 0.00 0.00 13 1018.7
20260508010205 20 209 9.7 19.3 0.00 0.00 0.00 13 1018.7
20260508004703 20 200 6.4 19.3 0.00 0.00 0.00 13 1018.7
20260508003705 20 189 4.8 9.7 0.00 0.00 0.00 13 1019.0
20260508003203 20 219 8.0 19.3 0.00 0.00 0.00 13 1019.0
20260508001703 20 296 1.6 8.0 0.00 0.00 0.00 13 1019.0
20260508000704 21 197 8.0 14.5 0.00 0.00 0.00 14 1018.9
20260508000204 21 258 8.0 19.3 0.00 0.00 0.00 14 1019.1
20260507234703 21 208 6.4 19.3 0.00 0.00 0.00 14 1019.1
20260507233703 21 251 9.7 16.1 0.00 0.00 0.00 15 1019.4
20260507233205 21 230 3.2 20.9 0.00 0.00 0.00 15 1019.4
20260507231704 22 249 9.7 19.3 0.00 0.00 0.00 15 1019.4
20260507231203 22 241 11.3 24.1 0.00 0.00 0.00 15 1019.4
20260507230703 22 274 9.7 27.4 0.00 0.00 0.00 16 1019.4
20260507230204 22 260 9.7 24.1 0.00 0.00 0.00 17 1019.4
20260507223703 22 298 6.4 16.1 0.00 0.00 0.00 18 1019.4
20260507223203 22 265 1.6 19.3 0.00 0.00 0.00 18 1020.2
20260507221203 22 242 9.7 20.9 0.00 0.00 0.00 19 1020.2
20260507220703 22 244 4.8 19.3 0.00 0.00 0.00 18 1020.2
20260507220203 23 188 4.8 19.3 0.00 0.00 0.00 17 1020.2
20260507214203 23 268 6.4 12.9 0.00 0.00 0.00 17 1020.2
20260507213703 23 268 6.4 19.3 0.00 0.00 0.00 17 1020.2
20260507213204 23 234 4.8 20.9 0.00 0.00 0.00 16 1021.2
20260507211704 22 260 6.4 11.3 0.00 0.00 0.00 16 1021.2
20260507211203 23 17 3.2 8.0 0.00 0.00 0.00 14 1021.2
20260507210703 23 334 6.4 16.1 0.00 0.00 0.00 14 1021.2
20260507210203 23 291 8.0 12.9 0.00 0.00 0.00 15 1021.2
20260507204703 22 264 6.4 11.3 0.00 0.00 0.00 13 1021.2
20260507203704 22 338 3.2 12.9 0.00 0.00 0.00 12 1021.2
20260507203204 21 292 3.2 16.1 0.00 0.00 0.00 12 1021.4
20260507201703 21 355 4.8 19.3 0.00 0.00 0.00 11 1021.6
20260507201203 21 318 4.8 16.1 0.00 0.00 0.00 12 1021.6
20260507200703 21 281 8.0 16.1 0.00 0.00 0.00 12 1021.6
20260507200203 21 358 4.8 22.5 0.00 0.00 0.00 11 1021.7
20260507194703 21 277 6.4 19.3 0.00 0.00 0.00 13 1022.0
20260507194203 20 280 8.0 16.1 0.00 0.00 0.00 13 1022.0
20260507193703 20 353 8.0 19.3 0.00 0.00 0.00 11 1022.0
20260507193203 20 336 8.0 20.9 0.00 0.00 0.00 13 1022.0
20260507191703 20 326 8.0 19.3 0.00 0.00 0.00 15 1022.4
20260507191203 19 316 8.0 14.5 0.00 0.00 0.00 16 1022.4
20260507190203 18 333 8.0 22.5 0.00 0.00 0.00 16 1022.4
20260507184703 18 6 4.8 24.1 0.00 0.00 0.00 18 1022.4
20260507184204 17 348 4.8 22.5 0.00 0.00 0.00 19 1023.0
20260507183704 17 327 9.7 19.3 0.00 0.00 0.00 20 1023.0
20260507183204 17 348 12.9 22.5 0.00 0.00 0.00 20 1023.0
20260507181704 16 336 12.9 22.5 0.00 0.00 0.00 20 1023.0
20260507181203 16 325 11.3 25.7 0.00 0.00 0.00 23 1023.0
20260507180703 16 342 14.5 25.7 0.00 0.00 0.00 21 1023.0
20260507180204 16 325 9.7 27.4 0.00 0.00 0.00 24 1023.0
20260507174703 15 328 9.7 27.4 0.00 0.00 0.00 28 1024.1
20260507174203 15 349 11.3 25.7 0.00 0.00 0.00 28 1024.1
20260507173704 15 327 12.9 20.9 0.00 0.00 0.00 29 1024.1
20260507173204 15 351 11.3 25.7 0.00 0.00 0.00 28 1024.1
20260507171703 14 0 9.7 27.4 0.00 0.00 0.00 32 1024.1
20260507171203 13 352 16.1 27.4 0.00 0.00 0.00 31 1024.1
20260507170703 13 345 16.1 29.0 0.00 0.00 0.00 32 1024.1
20260507170204 13 341 14.5 29.0 0.00 0.00 0.00 33 1024.1
20260507164704 12 333 16.1 25.7 0.00 0.00 0.00 38 1024.1
20260507163703 11 5 16.1 29.0 0.00 0.00 0.00 42 1024.1
20260507163204 11 329 11.3 29.0 0.00 0.00 0.00 46 1024.1
20260507161704 10 355 11.3 32.2 0.00 0.00 0.00 49 1024.1
20260507161205 10 355 12.9 29.0 0.00 0.00 0.00 49 1024.1
20260507160704 9 7 16.1 25.7 0.00 0.00 0.00 50 1024.6
20260507160204 8 357 11.3 29.0 0.00 0.00 0.00 52 1024.6
20260507154703 8 346 14.5 32.2 0.00 0.00 0.00 51 1024.6
20260507154204 8 339 9.7 27.4 0.00 0.00 0.00 54 1024.6
20260507153705 8 359 14.5 25.7 0.00 0.00 0.00 53 1024.6
20260507153203 8 357 17.7 27.4 0.00 0.00 0.00 54 1025.2
20260507151703 7 345 8.0 22.5 0.00 0.00 0.00 59 1025.2
20260507151204 7 355 9.7 22.5 0.00 0.00 0.00 59 1025.2
20260507150703 7 342 9.7 19.3 0.00 0.00 0.00 59 1025.2
20260507150204 6 341 9.7 19.3 0.00 0.00 0.00 61 1025.2
20260507144704 6 332 8.0 19.3 0.00 0.00 0.00 65 1025.2
20260507144205 6 351 6.4 16.1 0.00 0.00 0.00 68 1025.2
20260507143705 5 351 4.8 11.3 0.00 0.00 0.00 70 1025.2
20260507143203 5 355 9.7 19.3 0.00 0.00 0.00 71 1025.2
20260507141703 4 1 9.7 19.3 0.00 0.00 0.00 77 1025.2
20260507141205 4 358 9.7 16.1 0.00 0.00 0.00 79 1025.2
20260507140703 4 341 6.4 11.3 0.00 0.00 0.00 81 1025.2
20260507140204 3 356 6.4 16.1 0.00 0.00 0.00 83 1025.2
20260507134704 2 0 4.8 11.3 0.00 0.00 0.00 87 1025.2
20260507134204 2 356 4.8 9.7 0.00 0.00 0.00 87 1025.2
20260507133704 2 316 3.2 9.7 0.00 0.00 0.00 88 1025.2
20260507133204 2 325 3.2 8.0 0.00 0.00 0.00 88 1025.2
20260507131703 1 33 1.6 4.8 0.00 0.00 0.00 89 1025.2
20260507131204 1 42 3.2 4.8 0.00 0.00 0.00 89 1025.2
20260507130704 0 58 3.2 4.8 0.00 0.00 0.00 89 1025.2
20260507130204 0 125 0.0 0.0 0.00 0.00 0.00 89 1025.2
20260507124704 0 126 0.0 0.0 0.00 0.00 0.00 88 1025.1
20260507124204 -1 130 0.0 0.0 0.00 0.00 0.00 88 1025.1
20260507123203 -1 130 0.0 0.0 0.00 0.00 0.00 87 1025.1
20260507121703 -1 130 0.0 0.0 0.00 0.00 0.00 86 1025.1
20260507121203 -1 130 0.0 0.0 0.00 0.00 0.00 86 1025.2
20260507120704 -1 130 0.0 0.0 0.00 0.00 0.00 86 1025.2
20260507114703 -1 130 0.0 0.0 0.00 0.00 0.00 84 1025.0
20260507114204 -1 130 0.0 0.0 0.00 0.00 0.00 84 1025.0
20260507113703 -1 130 0.0 0.0 0.00 0.00 0.00 84 1025.0
20260507113204 -1 130 0.0 0.0 0.00 0.00 0.00 84 1025.0
20260507111703 -1 130 0.0 0.0 0.00 0.00 0.00 84 1025.0
20260507110703 -1 130 0.0 0.0 0.00 0.00 0.00 83 1025.0
20260507104703 -1 130 0.0 0.0 0.00 0.00 0.00 83 1025.0
20260507104203 0 130 0.0 0.0 0.00 0.00 0.00 83 1025.0
20260507103704 0 130 0.0 0.0 0.00 0.00 0.00 83 1025.0
20260507101704 0 130 0.0 1.6 0.00 0.00 0.00 82 1025.0
20260507101204 0 130 0.0 0.0 0.00 0.00 0.00 81 1025.0
20260507100703 0 130 0.0 0.0 0.00 0.00 0.00 81 1025.0
20260507100203 0 130 0.0 4.8 0.00 0.00 0.00 81 1025.0
20260507094705 0 130 0.0 3.2 0.00 0.00 0.00 80 1025.1
20260507094204 0 130 0.0 0.0 0.00 0.00 0.00 80 1024.7
20260507093703 0 130 0.0 1.6 0.00 0.00 0.00 79 1024.7
20260507093204 0 130 1.6 3.2 0.00 0.00 0.00 79 1024.7
20260507091704 0 130 0.0 3.2 0.00 0.00 0.00 79 1024.7
20260507090704 1 130 3.2 4.8 0.00 0.00 0.00 79 1024.7
20260507090204 1 130 0.0 4.8 0.00 0.00 0.00 79 1024.7
20260507084204 1 131 0.0 0.0 0.00 0.00 0.00 79 1024.7
20260507083703 2 131 1.6 4.8 0.00 0.00 0.00 79 1024.7
20260507083204 2 131 3.2 4.8 0.00 0.00 0.00 79 1024.7
20260507081704 2 134 0.0 0.0 0.00 0.00 0.00 80 1023.9
20260507081203 2 134 0.0 0.0 0.00 0.00 0.00 80 1023.9
20260507080704 2 134 0.0 0.0 0.00 0.00 0.00 80 1023.9
20260507080204 2 134 0.0 4.8 0.00 0.00 0.00 81 1023.9
20260507074703 2 133 3.2 9.7 0.00 0.00 0.00 81 1023.9
20260507074204 2 105 3.2 9.7 0.00 0.00 0.00 81 1023.9
20260507073704 2 153 4.8 8.0 0.00 0.00 0.00 80 1023.9
20260507073203 2 17 0.0 4.8 0.00 0.00 0.00 80 1023.9
20260507071703 2 17 3.2 4.8 0.00 0.00 0.00 79 1023.9
20260507071204 2 17 1.6 3.2 0.00 0.00 0.00 79 1023.9
20260507070706 2 17 1.6 4.8 0.00 0.00 0.00 79 1023.9
20260507063703 2 17 0.0 0.0 0.00 0.00 0.00 78 1023.9
20260507063204 2 17 0.0 3.2 0.00 0.00 0.00 77 1023.9
20260507061704 2 17 3.2 4.8 0.00 0.00 0.00 76 1023.7
20260507061204 3 17 3.2 4.8 0.00 0.00 0.00 75 1023.7
20260507060705 3 17 1.6 4.8 0.00 0.00 0.00 75 1023.7
20260507060205 3 17 3.2 4.8 0.00 0.00 0.00 75 1023.7
20260507054703 3 16 0.0 0.0 0.00 0.00 0.00 74 1023.4
20260507054204 3 16 0.0 0.0 0.00 0.00 0.00 73 1023.4
20260507053704 3 16 0.0 0.0 0.00 0.00 0.00 73 1023.4
20260507051704 3 22 6.4 11.3 0.00 0.00 0.00 71 1023.4
20260507051204 3 5 3.2 4.8 0.00 0.00 0.00 67 1023.4
20260507050703 3 255 0.0 0.0 0.00 0.00 0.00 65 1023.4
20260507050204 3 255 0.0 0.0 0.00 0.00 0.00 65 1023.3
20260507044703 4 255 0.0 0.0 0.00 0.03 0.00 62 1023.2
20260507044203 5 255 0.0 0.0 0.00 0.03 0.00 62 1022.9
20260507043703 5 255 0.0 0.0 0.00 0.03 0.00 60 1022.9
20260507041203 6 255 0.0 0.0 0.00 0.03 0.00 56 1020.9
20260507040703 6 255 0.0 0.0 0.00 0.03 0.00 55 1020.9
20260507040205 6 254 0.0 0.0 0.00 0.03 0.00 53 1020.9
20260507034704 7 251 1.6 4.8 0.00 0.03 0.00 52 1020.9
20260507034204 7 250 0.0 3.2 0.00 0.03 0.00 51 1020.9
20260507033705 7 250 1.6 4.8 0.00 0.03 0.00 50 1020.9
20260507033205 7 246 0.0 1.6 0.00 0.03 0.00 49 1020.9
20260507031703 8 246 0.0 3.2 0.00 0.03 0.00 47 1020.9
20260507031204 8 246 0.0 3.2 0.00 0.03 0.00 47 1020.9
20260507030703 8 246 0.0 0.0 0.00 0.03 0.00 46 1020.9
20260507030203 8 246 0.0 4.8 0.00 0.05 0.00 45 1020.9
20260507024204 10 246 1.6 1.6 0.00 0.13 0.00 42 1020.9
20260507023704 10 246 0.0 1.6 0.00 0.15 0.00 41 1020.9
20260507023204 10 246 1.6 9.7 0.00 0.15 0.00 41 1020.9
20260507021704 11 248 3.2 8.0 0.00 0.15 0.00 39 1019.5
20260507021204 11 252 4.8 8.0 0.00 0.15 0.00 39 1019.5
20260507020704 11 241 6.4 14.5 0.00 0.15 0.00 38 1019.5
20260507020204 11 237 8.0 19.3 0.00 0.15 0.00 38 1019.5